TimeEDT,TemperatureF,Dew PointF,Humidity,Sea Level PressureIn,VisibilityMPH,Wind Direction,Wind SpeedMPH,Gust SpeedMPH,PrecipitationIn,Events,Conditions,WindDirDegrees,DateUTC
12:18 AM,41.0,-9999,N/A,30.16,10.0,Calm,Calm,-,N/A,,Scattered Clouds,0,2013-03-12 04:18:00
12:25 AM,39.2,-9999,N/A,30.15,8.0,Calm,Calm,-,N/A,,Mostly Cloudy,0,2013-03-12 04:25:00
12:41 AM,39.2,-9999,N/A,30.15,1.8,Calm,Calm,-,N/A,,Overcast,0,2013-03-12 04:41:00
12:50 AM,39.2,-9999,N/A,30.16,3.0,Calm,Calm,-,N/A,,Overcast,0,2013-03-12 04:50:00
12:53 AM,39.0,-9999,N/A,30.16,7.0,Calm,Calm,-,N/A,,Overcast,0,2013-03-12 04:53:00
1:01 AM,39.2,-9999,N/A,30.16,9.0,Calm,Calm,-,N/A,,Overcast,0,2013-03-12 05:01:00
1:53 AM,39.0,39.0,100,30.14,9.0,Calm,Calm,-,N/A,,Mostly Cloudy,0,2013-03-12 05:53:00
2:53 AM,41.0,-9999,N/A,30.12,8.0,SSE,4.6,-,N/A,,Mostly Cloudy,150,2013-03-12 06:53:00
3:08 AM,41.0,-9999,N/A,30.11,8.0,SSE,3.5,-,N/A,,Mostly Cloudy,150,2013-03-12 07:08:00
3:39 AM,41.0,-9999,N/A,30.09,7.0,SE,3.5,-,N/A,,Scattered Clouds,140,2013-03-12 07:39:00
3:53 AM,42.1,-9999,N/A,30.08,8.0,Calm,Calm,-,N/A,,Scattered Clouds,0,2013-03-12 07:53:00
4:05 AM,42.8,-9999,N/A,30.07,8.0,SE,4.6,-,N/A,,Mostly Cloudy,140,2013-03-12 08:05:00
4:53 AM,43.0,-9999,N/A,30.07,7.0,Calm,Calm,-,N/A,,Overcast,0,2013-03-12 08:53:00
5:53 AM,44.1,-9999,N/A,30.07,6.0,Calm,Calm,-,N/A,,Haze,0,2013-03-12 09:53:00
6:53 AM,42.1,-9999,N/A,30.06,2.5,Calm,Calm,-,N/A,,Overcast,0,2013-03-12 10:53:00
6:56 AM,42.8,-9999,N/A,30.06,0.8,Calm,Calm,-,N/A,,Overcast,0,2013-03-12 10:56:00
6:58 AM,42.8,-9999,N/A,30.06,2.5,Calm,Calm,-,N/A,,Overcast,0,2013-03-12 10:58:00
7:28 AM,42.8,-9999,N/A,30.05,5.0,SSE,3.5,-,N/A,,Mostly Cloudy,150,2013-03-12 11:28:00
7:53 AM,44.1,-9999,N/A,30.04,6.0,SSE,4.6,-,N/A,,Scattered Clouds,160,2013-03-12 11:53:00
8:49 AM,46.4,-9999,N/A,30.04,8.0,SSE,8.1,-,N/A,,Mostly Cloudy,160,2013-03-12 12:49:00
8:53 AM,48.0,-9999,N/A,30.04,8.0,SSE,6.9,-,N/A,,Mostly Cloudy,160,2013-03-12 12:53:00
9:15 AM,48.2,-9999,N/A,30.05,9.0,SSE,8.1,-,N/A,,Overcast,160,2013-03-12 13:15:00
9:20 AM,48.2,-9999,N/A,30.05,9.0,South,9.2,-,N/A,,Overcast,170,2013-03-12 13:20:00
9:53 AM,50.0,-9999,N/A,30.04,10.0,SSE,6.9,-,N/A,,Overcast,150,2013-03-12 13:53:00
10:53 AM,51.1,-9999,N/A,30.02,9.0,SSE,6.9,-,N/A,,Overcast,150,2013-03-12 14:53:00
11:07 AM,51.8,-9999,N/A,30.02,10.0,SSE,8.1,-,N/A,,Overcast,150,2013-03-12 15:07:00
11:53 AM,52.0,-9999,N/A,29.99,10.0,SSE,9.2,16.1,N/A,,Mostly Cloudy,150,2013-03-12 15:53:00
12:53 PM,54.0,-9999,N/A,29.97,10.0,SSE,8.1,-,N/A,,Mostly Cloudy,160,2013-03-12 16:53:00
1:53 PM,57.0,55.0,93,29.94,10.0,South,8.1,19.6,N/A,,Overcast,170,2013-03-12 17:53:00
2:53 PM,57.0,55.0,93,29.91,10.0,SSE,8.1,-,N/A,,Overcast,160,2013-03-12 18:53:00
3:53 PM,55.0,-9999,N/A,29.88,10.0,SSE,9.2,-,N/A,,Overcast,160,2013-03-12 19:53:00
4:09 PM,53.6,-9999,N/A,29.87,7.0,SSE,10.4,17.3,N/A,,Overcast,150,2013-03-12 20:09:00
4:53 PM,54.0,-9999,N/A,29.85,7.0,SSE,11.5,19.6,0.00,,Overcast,150,2013-03-12 20:53:00
5:09 PM,53.6,-9999,N/A,29.84,7.0,SSE,10.4,-,0.01,,Overcast,150,2013-03-12 21:09:00
5:53 PM,53.1,-9999,N/A,29.81,6.0,SSE,12.7,19.6,0.02,Rain,Light Rain,150,2013-03-12 21:53:00
6:53 PM,54.0,-9999,N/A,29.78,2.5,SSE,12.7,23.0,0.10,Rain,Light Rain,160,2013-03-12 22:53:00
7:48 PM,53.6,-9999,N/A,29.75,3.0,South,15.0,20.7,0.19,Rain,Rain,170,2013-03-12 23:48:00
7:53 PM,55.0,-9999,N/A,29.75,4.0,South,13.8,23.0,0.21,Rain,Rain,170,2013-03-12 23:53:00
8:01 PM,55.4,-9999,N/A,29.75,4.0,South,16.1,21.9,0.02,Rain,Rain,170,2013-03-13 00:01:00
8:13 PM,55.4,-9999,N/A,29.74,3.0,South,15.0,26.5,0.07,Rain,Light Rain,170,2013-03-13 00:13:00
8:53 PM,55.0,-9999,N/A,29.75,3.0,South,9.2,23.0,0.10,Rain,Light Rain,190,2013-03-13 00:53:00
9:53 PM,54.0,-9999,N/A,29.74,10.0,South,12.7,23.0,0.02,,Overcast,190,2013-03-13 01:53:00
10:17 PM,53.6,-9999,N/A,29.74,10.0,SSW,13.8,20.7,N/A,,Overcast,200,2013-03-13 02:17:00
10:53 PM,53.1,-9999,N/A,29.74,10.0,South,5.8,-,N/A,,Overcast,190,2013-03-13 02:53:00
11:53 PM,52.0,-9999,N/A,29.73,10.0,South,3.5,-,N/A,,Overcast,170,2013-03-13 03:53:00